This demonstration page uses our WeatherBlox Daily Observations layout. Learn more.

40.92945, -100.16068

Hourly Observations for March 9, 2017

Temp ( °F °C ) Dew Point ( °F °C ) Humidity (%) Winds ( mph kmh ) Pressure ( in mb ) Visibility ( mi km ) Precip ( " mm )
12:15 am 00:15 Clear 49 9.3 23 -5.2 36 36 SSW 12 19 30.06 1018 10 16.0934 0 0
12:35 am 00:35 Clear 46 7.8 23 -5.2 40 40 WSW 6 9 30.06 1018 10 16.0934 0 0
12:55 am 00:55 Clear 45 7 22 -5.3 42 42 SW 7 11 30.09 1019 10 16.0934 0 0
1:15 am 01:15 Clear 45 7.4 22 -5.7 39 39 WSW 6 9 30.03 1017 10 16.0934 0 0
1:35 am 01:35 Clear 45 7.2 21 -5.9 39 39 W 8 13 30.03 1017 10 16.0934 0 0
1:55 am 01:55 Clear 44 6.5 21 -5.9 41 41 WSW 7 11 30.06 1018 10 16.0934 0 0
2:15 am 02:15 Clear 39 3.9 22 -5.5 51 51 NNW 8 13 30.12 1020 10 16.0934 0 0
2:35 am 02:35 Clear 38 3.5 23 -5 54 54 NW 5 7 30.09 1019 10 16.0934 0 0
2:55 am 02:55 Clear 38 3.5 23 -5 54 54 WNW 5 7 30.09 1019 10 16.0934 0 0
3:15 am 03:15 Clear 34 1.3 23 -5 63 63 Calm 30.09 1019 10 16.0934 0 0
3:35 am 03:35 Clear 37 3 23 -4.9 57 57 NW 3 6 30.09 1019 10 16.0934 0 0
3:55 am 03:55 Clear 34 1.1 23 -5 64 64 NNW 6 9 30.09 1019 10 16.0934 0 0
4:15 am 04:15 Clear 34 1.3 24 -4.5 66 66 Calm 30.09 1019 10 16.0934 0 0
4:35 am 04:35 Clear 35 1.4 24 -4.6 65 65 Calm 30.09 1019 10 16.0934 0 0
4:55 am 04:55 Clear 32 -0.1 23 -5.2 69 69 NNE 3 6 30.15 1021 10 16.0934 0 0
5:15 am 05:15 Clear 31 -0.7 22 -5.3 71 71 Calm 30.15 1021 10 16.0934 0 0
5:35 am 05:35 Clear 32 -0.2 24 -4.7 72 72 Calm 30.15 1021 10 16.0934 0 0
5:55 am 05:55 Clear 32 0.1 24 -4.5 72 72 W 3 6 30.15 1021 10 16.0934 0 0
6:15 am 06:15 Clear 31 -0.8 23 -4.8 75 75 N 6 9 30.15 1021 10 16.0934 0 0
6:35 am 06:35 Clear 33 0.6 26 -3.2 76 76 NNE 12 19 30.15 1021 10 16.0934 0 0
6:55 am 06:55 Clear 32 0 24 -4.3 73 73 NNE 8 13 30.15 1021 10 16.0934 0 0
7:15 am 07:15 Sunny 30 -0.9 23 -5.2 73 73 NNE 5 7 30.15 1021 10 16.0934 0 0
7:35 am 07:35 Sunny 30 -1.3 22 -5.5 73 73 N 5 7 30.15 1021 10 16.0934 0 0
7:55 am 07:55 Sunny 30 -1.2 21 -5.9 71 71 N 7 11 30.15 1021 10 16.0934 0 0
8:15 am 08:15 Sunny 31 -0.8 20 -6.5 66 66 NNE 7 11 30.15 1021 10 16.0934 0 0
8:35 am 08:35 Sunny 31 -0.3 21 -6.2 65 65 NNE 9 15 30.15 1021 10 16.0934 0 0
8:55 am 08:55 Sunny 32 -0.1 21 -6.3 63 63 NNE 8 13 30.18 1022 10 16.0934 0 0
9:15 am 09:15 Sunny 32 0 20 -6.6 62 62 N 8 13 30.18 1022 10 16.0934 0 0
9:35 am 09:35 Sunny 33 0.8 20 -6.4 59 59 NNE 8 13 30.15 1021 10 16.0934 0 0
9:55 am 09:55 Sunny 34 1.1 20 -6.4 58 58 NNE 5 7 30.18 1022 10 16.0934 0 0
10:15 am 10:15 Sunny 36 2 21 -6 56 56 N 5 7 30.15 1021 10 16.0934 0 0
10:35 am 10:35 Sunny 38 3.2 22 -5.7 52 52 NNE 9 15 30.15 1021 10 16.0934 0 0
10:55 am 10:55 Sunny 40 4.2 22 -5.4 50 50 NNE 8 13 30.09 1019 10 16.0934 0 0
11:15 am 11:15 Sunny 41 5.2 23 -5 48 48 NNE 7 11 30.12 1020 10 16.0934 0 0
11:35 am 11:35 Sunny 44 6.5 24 -4.7 45 45 NE 7 11 30.09 1019 10 16.0934 0 0
11:55 am 11:55 Sunny 47 8.3 24 -4.5 40 40 ENE 6 9 30.06 1018 10 16.0934 0 0
12:15 pm 12:15 Sunny 50 9.9 24 -4.5 36 36 NE 7 11 30.06 1018 10 16.0934 0 0
12:35 pm 12:35 Sunny 50 10 24 -4.5 36 36 ENE 9 15 30.06 1018 10 16.0934 0 0
12:55 pm 12:55 Sunny 50 9.8 24 -4.3 37 37 E 7 11 30.06 1018 10 16.0934 0 0
1:15 pm 13:15 Sunny 51 10.5 24 -4.2 36 36 E 6 9 30.03 1017 10 16.0934 0 0
1:35 pm 13:35 Sunny 53 11.8 25 -3.8 34 34 ENE 7 11 30.03 1017 10 16.0934 0 0
1:55 pm 13:55 Sunny 54 12.1 25 -3.7 33 33 NNE 10 17 30.03 1017 10 16.0934 0 0
2:15 pm 14:15 Sunny 54 12.2 25 -3.8 33 33 ENE 14 22 30.03 1017 10 16.0934 0 0
2:35 pm 14:35 Sunny 55 12.5 25 -4 32 32 NE 12 19 30.03 1017 10 16.0934 0 0
2:55 pm 14:55 Sunny 55 12.6 25 -4 31 31 ENE 10 17 30.03 1017 10 16.0934 0 0
3:15 pm 15:15 Sunny 55 12.7 25 -4 31 31 NE 12 19 30.03 1017 10 16.0934 0 0
3:35 pm 15:35 Partly Cloudy 55 12.8 25 -4.1 31 31 ENE 13 20 30.03 1017 10 16.0934 0 0
3:55 pm 15:55 Partly Cloudy 55 13 24 -4.2 30 30 NNE 10 17 30.06 1018 10 16.0934 0 0
4:15 pm 16:15 Mostly Cloudy 55 12.5 24 -4.5 31 31 NE 12 19 30.09 1019 10 16.0934 0 0
4:35 pm 16:35 Partly Cloudy 54 12 23 -4.8 31 31 NE 18 30 30.09 1019 10 16.0934 0 0
4:55 pm 16:55 Sunny 53 11.5 23 -5.2 31 31 NE 14 22 30.09 1019 10 16.0934 0 0
5:15 pm 17:15 Sunny 52 11.1 22 -5.6 31 31 NE 18 30 30.15 1021 10 16.0934 0 0
5:35 pm 17:35 Sunny 51 10.7 21 -6.2 30 30 NE 20 31 30.15 1021 10 16.0934 0 0
5:55 pm 17:55 Sunny 50 9.8 20 -6.5 31 31 NE 18 30 30.18 1022 10 16.0934 0 0
6:15 pm 18:15 Sunny 47 8.6 19 -7.1 32 32 NE 20 31 30.21 1023 10 16.0934 0 0
6:35 pm 18:35 Sunny 45 7.4 19 -7.2 35 35 NNE 21 33 30.24 1024 10 16.0934 0 0
6:55 pm 18:55 Clear 43 6 19 -7 39 39 NE 17 28 30.27 1025 10 16.0934 0 0
7:15 pm 19:15 Clear 41 5.2 20 -6.8 42 42 NE 15 24 30.33 1027 10 16.0934 0 0
7:35 pm 19:35 Clear 40 4.6 21 -5.9 47 47 NNE 25 41 30.36 1028 10 16.0934 0 0
7:55 pm 19:55 Clear 36 2.3 23 -5.1 58 58 NE 25 41 30.39 1029 10 16.0934 0 0
8:15 pm 20:15 Clear 34 1.2 23 -5.2 63 63 NNE 22 35 30.42 1030 10 16.0934 0 0
8:35 pm 20:35 Clear 33 0.5 23 -5.2 66 66 NNE 20 31 30.48 1032 10 16.0934 0 0
8:55 pm 20:55 Clear 32 0 23 -5.2 68 68 NNE 18 30 30.48 1032 10 16.0934 0 0
9:15 pm 21:15 Clear 31 -0.3 22 -5.5 68 68 NE 14 22 30.5 1033 10 16.0934 0 0
9:35 pm 21:35 Clear 31 -0.6 22 -5.6 69 69 NE 16 26 30.5 1033 10 16.0934 0 0
9:55 pm 21:55 Clear 30 -1.1 22 -5.7 71 71 NNE 10 17 30.5 1033 10 16.0934 0 0
10:15 pm 22:15 Clear 29 -1.5 22 -5.7 73 73 NE 10 17 30.5 1033 10 16.0934 0 0
10:35 pm 22:35 Clear 29 -1.8 21 -6 73 73 NNE 3 6 30.56 1035 10 16.0934 0 0
10:55 pm 22:55 Partly Cloudy 27 -2.6 21 -6.1 77 77 N 10 17 30.59 1036 10 16.0934 0 0
11:15 pm 23:15 Mostly Cloudy 27 -3 20 -6.5 77 77 NNE 13 20 30.59 1036 10 16.0934 0 0
11:35 pm 23:35 Mostly Cloudy 26 -3.3 20 -6.7 78 78 NE 15 24 30.56 1035 10 16.0934 0 0
11:55 pm 23:55 Mostly Cloudy 26 -3.6 20 -6.6 80 80 NNE 13 20 30.56 1035 10 16.0934 0 0

Powered by AerisWeather